Simultaneous Nadir Overpasses (SNOs) Predictions

Prediction of SNOs between GOES-16 and NOAA-20 Satellite Orbit:

Table of predicted SNOs for the next 14.0 days since TLE Epoch: 6/5/2020
Index Date Time (GOES-16) GOES-16 Lat,Lon NOAA-20 Lat,Lon Distance(km) Time Diff (sec)
1 06/07/2020 18:26:57 0.01, -75.16 -0.14, -75.80 73.15 80
2 06/08/2020 18:10:52 0.01, -75.16 0.90, -71.27 443.39 80
3 06/10/2020 06:32:39 -0.01, -75.16 0.32, -76.53 156.78 80
4 06/11/2020 06:11:14 -0.01, -75.17 -0.72, -72.01 360.15 80
5 06/12/2020 18:33:10 0.00, -75.18 -0.50, -77.30 242.96 80
6 06/13/2020 18:17:05 0.01, -75.19 0.55, -72.78 274.66 80
7 06/15/2020 06:38:52 -0.00, -75.21 0.63, -78.05 323.75 80
8 06/16/2020 06:17:27 -0.00, -75.22 -0.36, -73.51 194.01 80
9 06/17/2020 18:39:23 0.00, -75.24 -0.79, -78.82 408.34 80
10 06/18/2020 18:23:18 0.00, -75.25 0.20, -74.28 109.86 80




NCC Satellite Simultaneous Nadir Overpasses (SNOs) Prediction Service
